Regional Weather Roundup
Issued by NWS

Home | Current Version | Previous Version | Graphics & Text | Print | Product List | Glossary On
Versions: 1 2 3 4 5 6 7 8 9 10 11 12 13 14 15 16 17 18 19 20 21 22 23 24 25 26 27 28 29 30 31 32 33 34 35 36 37 38 39 40 41 42 43 44 45 46 47 48 49 50
000
ASUS43 KIND 031009
RWRIN

WEATHER ROUNDUP FOR INDIANA
NATIONAL WEATHER SERVICE INDIANAPOLIS IN
600 AM EDT SUN MAY 03 2015

NOTE: "FAIR" INDICATES FEW OR NO CLOUDS BELOW 12,000 FEET WITH NO
SIGNIFICANT WEATHER AND/OR OBSTRUCTIONS TO VISIBILITY.

* - STATION DOES NOT REPORT WEATHER SUCH AS PRECIPITATION OR FOG.

+ - STATION NOT QUALITY CONTROLLED BY THE NATIONAL WEATHER SERVICE.
    USE DATA WITH CAUTION...ESPECIALLY DEWPOINT AND RELATIVE
    HUMIDITY OBSERVATIONS.

INZ001>003-010>013-019-020-031100-
NORTHWEST INDIANA

CITY           SKY/WX    TMP DP  RH WIND       PRES   REMARKS
GARY /AIRPORT/ MOCLDY    63 N/A N/A S9        29.99S
KNOX *+        PTCLDY    50  28  43 S7        30.01S
LA PORTE +     PTCLDY    51  41  70 CALM      30.02R
MICHIGAN CITY+ PTCLDY    55  34  44 SW9       30.01R
MONTICELLO +   PTCLDY    56  43  61 S5        30.02S
VALPARAISO     MOCLDY    54  39  57 S5        30.02R

$$

LMZ046-743>745-031100-
SOUTHERN LAKE MICHIGAN

STATION/POSITION TIME  TEMP    WIND        PRES    WAVE
                       AIR SEA DIR/SP/G            HT
                 (UTC) (F)     (DEG/KT/KT) (MB)    (FT)
BURNS HARBOR     1000   59     180/ 10/ 13 1015.9F
MICHIGAN CITY    1000   61     160/ 11/ 14   N/A
5NW MICH CITY    1000   57 50  210/  8/ 10   N/A     1

$$

INZ004-005-014>016-021>024-031100-
NORTH CENTRAL INDIANA

CITY           SKY/WX    TMP DP  RH WIND       PRES   REMARKS
GOSHEN         CLEAR     52  40  63 S5        30.02S
LOGANSPORT +   MOCLDY    50  41  71 S3        30.04S
PERU/GRISSOM   PTCLDY    51  43  73 S7        30.03S
ROCHESTER +    PTCLDY    59  43  55 S5        30.04R
SOUTH BEND     PTCLDY    54  39  57 SW7       30.02S
WARSAW +       PTCLDY    46  41  81 CALM      30.03S

$$

INZ006>009-017-018-025>027-031100-
NORTHEAST INDIANA

CITY           SKY/WX    TMP DP  RH WIND       PRES   REMARKS
ANGOLA *+      CLEAR     48  43  81 CALM      30.03S
AUBURN +       PTCLDY    48  41  76 CALM      30.05S
FORT WAYNE     MOCLDY    50  43  77 S3        30.05S
HUNTINGTON +   MOCLDY    49  44  81 S3        30.05R

$$

INZ028-029-035-036-043>045-051>053-031100-
WEST CENTRAL INDIANA

CITY           SKY/WX    TMP DP  RH WIND       PRES   REMARKS
CRAWFORDSVL +  CLOUDY    53  42  66 S3        30.05R
GREENCASTLE +  CLOUDY    54  43  66 S3        30.06S
LAFAYETTE      PTCLDY    52  44  74 CALM      30.03S
TERRE HAUTE    CLOUDY    59  48  67 S6        30.05S

$$

INZ030>032-037>040-046>048-054>057-064-065-031100-
CENTRAL INDIANA

CITY           SKY/WX    TMP DP  RH WIND       PRES   REMARKS
CP ATTERBURY + CLOUDY    46  45  93 CALM      30.08S
FISHERS *+     MOCLDY    50  48  93 CALM      30.07R
FRANKFORT +    MOCLDY    51  45  78 SE3       30.06S
GREENWOOD *+   MOCLDY    55  45  67 CALM      30.07S
INDIANAPOLIS   MOCLDY    53  44  71 SE5       30.05R
-EAGLE CREEK   MOCLDY    51  47  86 CALM      30.05S
MARION +       MOCLDY    50  42  73 S5        30.06R
MT COMFORT *+  MOCLDY    52  39  62 S5        30.07S
SHELBYVILLE    CLOUDY    53  45  74 SE3       30.07S
ZIONSVILLE +   MOCLDY    52  44  72 CALM      30.06S

$$

INZ033-034-041-042-049-050-058-059-031100-
EAST CENTRAL INDIANA

CITY           SKY/WX    TMP DP  RH WIND       PRES   REMARKS
MUNCIE         MOCLDY    55  43  63 S6        30.06S

$$

INZ060-061-067>069-081>083-085>088-031100-
SOUTHWEST INDIANA

CITY           SKY/WX    TMP DP  RH WIND       PRES   REMARKS
EVANSVILLE     MOCLDY    55  50  83 CALM      30.08R HAZE
HUNTINGBURG *+ MOCLDY    52  46  82 SE5       30.08S
WASHINGTON +   CLOUDY    55  48  77 S6        30.06R

$$

INZ062-063-066-070>080-084-089>092-031100-
SOUTH CENTRAL AND SOUTHEAST INDIANA

CITY           SKY/WX    TMP DP  RH WIND       PRES   REMARKS
BEDFORD +      CLOUDY    52  46  82 SE3       30.08S
BLOOMINGTON    CLOUDY    53  47  79 CALM      30.07R
MADISON *+     MOCLDY    50  46  87 CALM      30.11R
NORTH VERNON + CLOUDY    48  48 100 CALM      30.09S
SEYMOUR +      CLOUDY    52  50  93 CALM      30.08S

$$




USA.gov is the U.S. government's official web portal to all federal, state and local government web resources and services.